Location: Hartsville
(36.3909°N, 86.1672°W)
Time: 15:51:52
(UTC+00:00)

Daily predictions for brighter satellites

Satellite Brightness Start Highest point End
(mag) Time Altitude Azimuth Time Altitude Azimuth Time Altitude Azimuth
Cosmos 2219 Rocket 4.0 12:02:17 11° NW 12:02:17 11° NW 12:03:28 10° NW
Cosmos 1300 3.1 12:00:20 10° S 12:04:05 67° E 12:07:52 10° NNE
Cosmos 2228 3.6 12:00:40 10° S 12:04:50 60° E 12:09:02 10° NNE
Cosmos 1814 Rocket 4.4 12:00:58 10° SW 12:05:44 38° WNW 12:10:31 10° N
Cosmos 1626 Rocket 3.8 12:02:02 10° NNW 12:06:20 47° W 12:10:36 10° SSW
Cosmos 1937 Rocket 4.1 12:02:52 10° NW 12:07:40 36° W 12:12:24 10° SSW
Cosmos 372 Rocket 4.0 12:03:48 10° NNW 12:09:03 74° WSW 12:14:14 10° S
SL-19 R/B 4.1 12:05:41 10° N 12:09:31 59° WNW 12:12:50 10° SSW
GEOS 3 Rocket 4.0 12:04:30 10° SSE 12:09:39 51° WSW 12:14:54 10° NW
Envisat 3.4 12:07:36 10° N 12:12:19 40° WNW 12:17:01 10° SW
ERS-2 3.7 12:11:11 10° SW 12:13:33 16° W 12:15:55 10° NW
Cosmos 2195 Rocket 4.5 12:08:07 10° N 12:14:22 76° W 12:20:32 10° S
Cosmos 1689 Rocket 3.7 12:14:32 10° SW 12:16:34 17° W 12:18:36 10° NW
ATLAS CENTAUR R/B 1.3 12:14:08 10° SW 12:17:43 45° WNW 12:21:16 10° NNE
NOAA 6 4.2 12:13:30 10° N 12:18:30 50° WNW 12:23:28 10° SW
Cosmos 1953 3.9 12:16:44 10° WSW 12:18:58 14° WNW 12:21:10 10° NW
H-2A R/B 2.7 12:16:30 10° N 12:20:56 59° WNW 12:25:21 10° SSW
Cosmos 2297 4.5 12:17:06 10° NNW 12:22:45 55° ENE 12:28:21 10° SE
BREEZE M DEB (TANK) 2.2 12:21:01 10° WNW 12:22:55 31° SW 12:25:21 10° SSE
CORIOLIS 4.1 12:18:36 10° NNE 12:23:57 84° WNW 12:29:18 10° SSW
Cosmos 44 Rocket 4.1 12:23:27 10° NW 12:28:15 38° WSW 12:33:00 10° S
Cosmos 1758 Rocket 3.6 12:24:14 10° NNW 12:28:42 72° W 12:33:08 10° S
Cosmos 2058 Rocket 4.4 12:25:20 10° SSE 12:29:30 46° E 12:33:43 10° NNE
NOAA 11 4.2 12:27:03 10° N 12:32:31 75° WNW 12:37:55 10° SSW
H-2A ROCKET BODY 4.4 22:38:56 10° WSW 22:44:29 54° S 23:12:09 10° ESE
ATLAS 5 CENTAUR R/B 3.9 23:24:12 10° W 23:26:49 16° NW 23:29:35 10° N
Lacrosse 5 3.3 23:23:51 10° NNW 23:27:28 19° NNE 23:31:04 10° ENE
Cosmos 1689 Rocket 4.1 23:26:28 10° ENE 23:27:32 12° E 23:28:36 10° ESE
Cosmos 1603 4.1 23:21:57 10° NNW 23:27:39 73° WSW 23:33:21 10° SSE
Okean-O 4.1 23:25:04 10° ESE 23:27:41 16° ENE 23:30:19 10° NNE
Okean O Rocket 1.6 23:23:34 10° SSE 23:28:01 81° ENE 23:32:28 10° N
Cosmos 1455 3.6 23:29:04 10° NNE 23:31:42 18° ENE 23:34:20 10° ESE
ATLAS 3B R/B 3.6 23:27:43 10° NW 23:34:37 59° WSW 23:41:46 10° SSE
Cosmos 1300 3.3 23:33:01 10° NNW 23:36:48 61° W 23:40:32 10° S
BREEZE-M DEB (TANK) 2.2 23:34:04 10° WNW 23:36:53 73° SSW 23:41:01 10° SE
Aureole 3 4.4 23:35:30 10° NE 23:37:24 15° ENE 23:39:14 10° ESE
FengYun 1-2 T 4.4 23:33:36 10° SSE 23:39:09 85° WSW 23:44:46 10° NNW
YAOGAN 1 3.8 23:38:50 10° ESE 23:42:01 21° ENE 23:45:14 10° NNE
Cosmos 1892 Rocket 3.6 23:38:15 10° S 23:42:35 83° W 23:46:56 10° N
Cosmos 2279 Rocket 4.1 23:37:49 10° N 23:44:08 89° WSW 23:50:22 10° S
ERS-2 2.7 23:40:52 10° NNE 23:44:15 37° E 23:47:37 10° SSE
CZ-4B R/B 1.3 23:40:59 10° NNE 23:44:20 87° E 23:47:35 10° SSW
Cosmos 1606 Rocket 3.9 23:40:36 10° NNW 23:44:58 70° W 23:49:22 10° S
H-2A R/B 3.6 23:41:19 10° N 23:45:24 38° WNW 23:49:23 10° SW
BREEZE-M DEB (TANK) 4.0 23:43:37 10° WNW 23:46:33 59° SW 23:56:08 10° SE
Cosmos 2263 Rocket 4.5 23:45:41 10° WSW 23:49:53 21° WNW 23:54:06 10° N
Cosmos 2228 4.0 23:47:11 10° NNW 23:51:19 50° W 23:55:27 10° SSW
